Back to catalog

KUIPER-00550

AliveCommunicationsVLEO
NORAD 69617·PAYLOAD·🇺🇸 United States

Launched Jun 17, 2026 from Guiana Space Centre

Loading…

Next Passes (next 24 hours)

TLE

FreshSource: CelesTrak SupGP

Epoch: Sep 14, 2026, 16:29 UTC

1 69617C 26140AB  26257.68726852 -.00660130  00000+0 -36928-1 0  2571
2 69617  51.8807 330.7343 0005794 281.5211 227.5879 15.13576445    10

Track KUIPER-00550 in real time with AllMySat

Download on the App Store